Starlink 32242

operational
NORAD ID: 60429 Int'l Des: 2024-144 Owner: SPXS Country: US Constellation: starlink
LEOCIRCULAR

About Starlink 32242

Description loading...

Live Position

Loading 3D Globe...

Upcoming Passes

Altitude History

Altitude vs Time

uPlot chart will show altitude changes over time

Two-Line Element Set

1 60429U 24144E 25257.44820066 -.00003754 00000-0 -11465-3 0 9998
2 60429 53.1596 315.9131 0001424 87.3108 272.8055 15.30203540 62362
Epoch: Sep 14, 2025 • Age: 24 hours

Current Status

Altitude 480.6 km
Velocity 7.63 km/s
Sub-Earth Point 52.34°N, 98.77°W
Launch Date Aug 12, 2024
Age 1 years
Type internet

Technical Details

Classification Payload
Mass 730.00 kg
Dry Mass 700.00 kg
Total Mass 730.00 kg
Length 0.30 m
Diameter 4.10 m
Span 29.00 m
Shape Box + pan
Manufacturer SPXS
Bus Type Starlink V2M
Phase Status In Orbit
Owner/State SPXS/US

Large Constellations

Loading constellations...